Location: McCreary
(50.7746°N, 99.4937°W)
Time: 16:21:40
(UTC-06:00)

Tiangong - Visible Passes

Search period start: 08 December 2022 00:00
Search period end: 18 December 2022 00:00
Orbit: 386 x 392 km, 41.5° (Epoch: 08 December)

Date Brightness Start Highest point End Pass type
(mag) Time Alt. Az. Time Alt. Az. Time Alt. Az.
08 Dec 0.6 17:29:56 10° SW 17:31:55 15° S 17:33:53 10° SE visible
09 Dec 0.9 18:08:59 10° SW 18:10:04 11° SSW 18:11:09 10° S visible
10 Dec 0.8 17:10:21 10° SW 17:12:02 14° S 17:13:44 10° SSE visible
